Flag for Germany

Past Weather in Buchholz in der Nordheide, Lower Saxony, Germany — Yesterday and Last 2 Weeks

Now
59 °F

Scattered clouds.


Feels Like: 57 °F
Forecast: 60 / 41 °F
Wind: 10 mph from Northwest

Location: Hamburg-Finkenwerder

Current Time: Sep 19, 2019 at 12:46:09 pm

Latest Report: Sep 19, 2019 at 12:20 pm


Visibility: N/A

Pressure: 30.39 "Hg

Humidity: 59%

Dew Point: 45 °F

Location of Buchholz in der NordheideLocation

Past Weather in Buchholz in der Nordheide — Graph

°F

Buchholz in der Nordheide Temperature Yesterday

Maximum temperature yesterday: 59 °F (at 12:20 pm)
Minimum temperature yesterday: 48 °F (at 12:50 am)
Average temperature yesterday: 54 °F

High & Low Weather Summary for the Past Weeks

 TemperatureHumidityPressure
High70 °F (Sep 4, 4:50 pm)100% (Sep 8, 5:50 am)30.57 "Hg (Sep 8, 5:50 am)
Low43 °F (Sep 19, 7:20 am)46% (Sep 11, 2:20 pm)29.83 "Hg (Sep 4, 4:50 pm)
Average57 °F78%30.11 "Hg
* Reported Sep 4 11:20 am — Sep 19 11:20 am, Buchholz in der Nordheide. Weather by CustomWeather, © 2019

Note: Actual official high and low records may vary slightly from our data, if they occured in-between our weather recording intervals... More about our weather records

Advertising

Buchholz in der Nordheide Weather History for the Previous 24 Hours

Scroll right to see more
 ConditionsComfort  
Time TempWeatherWind HumidityBarometerVisibility
11:20 am
Thu, Sep 19
55 °FScattered clouds.10 mph63%30.36 "HgN/A
10:50 am55 °FScattered clouds.9 mph63%30.36 "HgN/A
10:20 am55 °FPassing clouds.8 mph67%30.36 "HgN/A
9:50 am54 °FPassing clouds.5 mph82%30.36 "HgN/A
9:20 am52 °FSunny.6 mph82%30.36 "Hg10 mi
8:50 am48 °FSunny.5 mph94%30.33 "Hg10 mi
8:20 am46 °FSunny.7 mph93%30.33 "Hg10 mi
7:50 am45 °FSunny.7 mph93%30.33 "Hg10 mi
7:20 am43 °FSunny.7 mph93%30.33 "Hg10 mi
6:50 am45 °FPassing clouds.5 mph93%30.30 "HgN/A
6:20 am45 °FPassing clouds.6 mph93%30.30 "HgN/A
5:50 am48 °FClear.7 mph87%30.30 "HgN/A
5:20 am48 °FPassing clouds.8 mph87%30.30 "HgN/A
4:50 am50 °FPassing clouds.8 mph88%30.30 "HgN/A
4:20 am50 °FPassing clouds.9 mph88%30.30 "HgN/A
3:20 am48 °FPassing clouds.8 mph87%30.30 "HgN/A
2:50 am46 °FPartly cloudy.6 mph87%30.30 "HgN/A
2:20 am50 °FPassing clouds.8 mph82%30.30 "HgN/A
1:50 am50 °FPassing clouds.8 mph82%30.30 "HgN/A
1:20 am48 °FPassing clouds.6 mph82%30.30 "HgN/A
12:50 am48 °FPartly cloudy.7 mph87%30.27 "HgN/A
12:20 am50 °FPassing clouds.9 mph76%30.27 "HgN/A
11:50 pm
Wed, Sep 18
50 °FOvercast.10 mph76%30.27 "HgN/A
11:20 pm48 °FPassing clouds.7 mph82%30.27 "HgN/A
10:50 pm50 °FPassing clouds.8 mph82%30.27 "HgN/A
10:20 pm52 °FPassing clouds.10 mph67%30.27 "HgN/A
9:50 pm54 °FClear.8 mph63%30.27 "HgN/A
9:20 pm54 °FPassing clouds.9 mph63%30.27 "HgN/A
8:50 pm54 °FClear.10 mph63%30.24 "HgN/A
8:20 pm54 °FPassing clouds.12 mph63%30.24 "HgN/A
7:50 pm55 °FPassing clouds.12 mph59%30.24 "HgN/A
7:20 pm55 °FPassing clouds.14 mph59%30.24 "HgN/A
6:50 pm57 °FScattered clouds.17 mph55%30.21 "HgN/A
6:20 pm57 °FScattered clouds.12 mph55%30.24 "HgN/A
5:50 pm57 °FSprinkles. Passing clouds.16 mph59%30.21 "HgN/A
5:20 pm57 °FScattered showers. Scattered clouds.17 mph59%30.21 "HgN/A
4:50 pm57 °FScattered clouds.14 mph63%30.21 "HgN/A
4:20 pm57 °FSunny.22 mph51%30.21 "Hg10 mi
3:20 pm59 °FScattered clouds.22 mph48%30.21 "HgN/A
2:50 pm57 °FScattered clouds.17 mph55%30.21 "HgN/A
2:20 pm59 °FPassing clouds.21 mph48%30.21 "HgN/A
1:50 pm59 °FScattered clouds.17 mph55%30.21 "HgN/A
1:20 pm57 °FSprinkles. Scattered clouds.18 mph55%30.21 "HgN/A
12:50 pm57 °FPassing clouds.15 mph55%30.21 "HgN/A
12:20 pm59 °FPassing clouds.21 mph51%30.21 "HgN/A
Weather by CustomWeather, © 2019

See weather overview